CW2098 Weather Reports


Display with metric or nautical units.
time (UTC)temp
F
wind
direction
speed
MPH
gust
MPH
rain 1hr
in
rain 24hr
in
rain mn
in
humidity
%
barometer
mb
20260830094448 76 75 3.0 5.0 0.00 0.01 0.01 91 1001.1
20260830093930 76 29 4.0 10.0 0.00 0.01 0.01 92 1001.1
20260830092448 76 12 3.0 6.0 0.00 0.01 0.01 93 1001.0
20260830091445 77 50 4.0 8.0 0.00 0.01 0.01 94 1000.5
20260830090443 78 26 4.0 8.0 0.01 0.01 0.01 94 1001.4
20260830085444 80 29 2.0 4.0 0.01 0.01 0.01 95 1002.6
20260830084444 80 94 2.0 4.0 0.01 0.01 0.01 95 1002.9
20260830083444 80 86 2.0 4.0 0.01 0.01 0.01 95 1003.0
20260830082456 80 63 1.0 4.0 0.01 0.01 0.01 95 1003.0
20260830081444 80 142 1.0 3.0 0.01 0.01 0.01 94 1003.8
20260830080442 80 67 1.0 2.0 0.00 0.00 0.00 94 1003.8
20260830075438 80 56 1.0 2.0 0.00 0.00 0.00 94 1003.4
20260830074437 80 0 0.0 2.0 0.00 0.00 0.00 94 1003.5
20260830073437 80 0 0.0 1.0 0.00 0.00 0.00 94 1003.6
20260830072435 80 90 0.0 2.0 0.00 0.00 0.00 94 1003.4
20260830071434 79 0 0.0 1.0 0.00 0.00 0.00 93 1003.6
20260830070434 79 78 0.0 2.0 0.00 0.00 0.00 93 1003.1
20260830065435 80 68 1.0 2.0 0.00 0.00 0.00 93 1002.8
20260830064918 80 96 1.0 2.0 0.00 0.00 0.00 93 1002.8
20260830063436 80 0 1.0 4.0 0.00 0.00 0.00 92 1002.9
20260830062434 80 21 2.0 3.0 0.00 0.00 0.00 92 1002.8
20260830061434 80 22 2.0 3.0 0.00 0.00 0.00 91 1002.7
20260830060434 80 33 2.0 4.0 0.00 0.00 0.00 91 1002.5
20260830055434 80 359 2.0 4.0 0.00 0.00 0.00 90 1002.5
20260830054434 80 16 2.0 4.0 0.00 0.00 0.00 90 1002.5
20260830053912 80 39 2.0 5.0 0.00 0.00 0.00 89 1003.4
20260830052434 80 30 2.0 4.0 0.00 0.00 0.00 88 1003.0
20260830051443 80 46 2.0 4.0 0.00 0.00 0.00 87 1002.4
20260830050430 80 39 2.0 3.0 0.00 0.00 0.00 86 1001.6
20260830045431 79 57 2.0 4.0 0.00 0.00 0.00 85 1001.5
20260830044430 79 58 2.0 3.0 0.00 0.00 0.00 84 1001.2
20260830043431 79 51 1.0 2.0 0.00 0.00 0.00 84 1000.8
20260830042431 79 0 1.0 2.0 0.00 0.00 0.00 83 1000.6
20260830040431 79 57 2.0 3.0 0.00 0.00 0.00 82 1001.5
20260830035903 79 57 1.0 3.0 0.00 0.00 0.00 81 1001.9
20260830034428 80 47 1.0 2.0 0.00 0.00 0.00 80 1002.0
20260830033428 80 69 1.0 2.0 0.00 0.00 0.00 78 1002.3
20260830032429 80 54 2.0 3.0 0.00 0.00 0.00 76 1002.8
20260830031429 80 40 2.0 3.0 0.00 0.00 0.00 75 1002.8
20260830030429 80 42 1.0 3.0 0.00 0.00 0.00 74 1003.1
20260830025430 80 0 1.0 3.0 0.00 0.00 0.00 73 1003.4
20260830024427 80 75 1.0 3.0 0.00 0.00 0.00 74 1003.7
20260830023426 81 88 2.0 5.0 0.00 0.00 0.00 74 1004.1
20260830022904 81 74 4.0 7.0 0.00 0.00 0.00 75 1004.5